Location: Unspecified
(0.0000°N, 0.0000°E)
Time: 13:46:48
(UTC+02:00)

ISS - All Passes

Search period start: 19 September 2014 00:00
Search period end: 29 September 2014 00:00
Orbit: 414 x 417 km, 51.6° (Epoch: 19 September)

Date Brightness Start Highest point End Pass type
(mag) Time Alt. Az. Time Alt. Az. Time Alt. Az.
19 Sep - 02:04:30 10° SW 02:07:39 40° NW 02:10:47 10° NNE night (unlit)
19 Sep - 13:39:56 10° NW 13:43:13 67° SW 13:46:31 10° SSE daylight
20 Sep - 01:15:35 10° SSW 01:18:54 74° SE 01:22:13 10° NE night (unlit)
20 Sep - 12:51:17 10° NNW 12:54:28 44° NE 12:57:39 10° SE daylight
21 Sep - 00:27:12 10° S 00:30:07 28° SE 00:33:02 10° ENE night (unlit)
21 Sep - 12:03:17 10° N 12:05:39 18° NE 12:08:03 10° E daylight
21 Sep - 13:40:26 10° W 13:42:10 14° SW 13:43:54 10° SSW daylight
21 Sep - 23:39:47 10° SSE 23:41:17 13° SE 23:42:47 10° E night (unlit)
22 Sep - 01:15:16 10° WSW 01:17:48 20° NW 01:20:19 10° N night (unlit)
22 Sep - 12:50:21 10° WNW 12:53:19 30° SW 12:56:17 10° S daylight
23 Sep - 00:25:42 10° SW 00:28:56 49° NW 00:32:09 10° NNE night (unlit)
23 Sep - 12:01:08 10° NW 12:04:26 82° SW 12:07:46 10° SSE daylight
23 Sep - 23:36:46 10° SSW 23:40:03 59° SE 23:43:19 10° NE night (unlit)
24 Sep - 11:12:28 10° NNW 11:15:32 36° NE 11:18:37 10° ESE daylight
24 Sep - 22:48:24 10° S 22:51:07 23° SE 22:53:51 10° ENE night (unlit)
25 Sep - 00:26:53 10° WNW 00:27:38 11° NW 00:28:22 10° NW night (unlit)
25 Sep - 10:24:32 10° NNE 10:26:35 16° NE 10:28:39 10° E daylight
25 Sep - 12:00:57 10° W 12:03:05 16° SW 12:05:13 10° SSW daylight
25 Sep - 22:01:32 10° SE 22:02:08 10° SE 22:02:44 10° ESE night (unlit)
25 Sep - 23:35:54 10° WSW 23:38:39 24° NW 23:41:23 10° N night (unlit)
26 Sep - 11:11:00 10° NW 11:14:06 37° SW 11:17:12 10° SSE daylight
26 Sep - 22:46:22 10° SW 22:49:39 61° NW 22:52:55 10° NNE night (unlit)
27 Sep - 10:21:47 10° NNW 10:25:05 79° NE 10:28:24 10° SE daylight
27 Sep - 21:57:24 10° SSW 22:00:37 47° SE 22:03:49 10° NE visible
28 Sep - 09:33:07 10° N 09:36:02 29° NE 09:38:58 10° ESE daylight
28 Sep - 21:09:04 10° S 21:11:33 19° SE 21:14:01 10° ENE visible
28 Sep - 22:46:27 10° W 22:48:02 13° NW 22:49:37 10° NNW night (unlit)
